KD8NVS-13 Weather Reports


Display with metric or nautical units.
time (UTC)temp
F
wind
direction
speed
MPH
gust
MPH
rain 1hr
in
rain 24hr
in
rain mn
in
humidity
%
barometer
mb
20260506215301 57 246 6.0 6.0 0.00 0.47 0.47 49 1002.8
20260506214756 57 266 5.0 5.0 0.00 0.47 0.47 50 1003.2
20260506214254 57 288 10.0 11.0 0.00 0.47 0.47 49 1002.8
20260506213752 57 253 8.0 8.0 0.00 0.47 0.47 51 1002.5
20260506213249 57 264 4.0 4.0 0.00 0.47 0.47 51 1002.5
20260506212746 57 264 4.0 5.0 0.00 0.47 0.47 50 1002.5
20260506212242 57 265 5.0 6.0 0.00 0.47 0.47 51 1002.5
20260506211737 58 259 5.0 5.0 0.00 0.47 0.47 51 1002.5
20260506211233 58 253 7.0 7.0 0.00 0.47 0.47 51 1002.5
20260506210731 58 252 8.0 9.0 0.00 0.47 0.47 50 1002.5
20260506210222 58 264 9.0 10.0 0.00 0.47 0.47 51 1002.5
20260506205719 58 260 4.0 4.0 0.00 0.47 0.47 51 1002.5
20260506205214 58 247 5.0 6.0 0.00 0.47 0.47 51 1002.1
20260506204712 58 270 9.0 10.0 0.00 0.47 0.47 50 1002.1
20260506204209 59 267 7.0 7.0 0.00 0.47 0.47 49 1002.5
20260506203707 59 264 8.0 8.0 0.00 0.47 0.47 49 1002.5
20260506203204 60 265 7.0 7.0 0.00 0.47 0.47 49 1002.1
20260506202702 59 243 5.0 6.0 0.00 0.47 0.47 47 1001.8
20260506202157 60 276 4.0 4.0 0.00 0.47 0.47 47 1002.1
20260506201655 60 260 6.0 7.0 0.00 0.47 0.47 46 1002.1
20260506201151 60 258 4.0 5.0 0.00 0.47 0.47 48 1002.1
20260506200648 60 252 8.0 9.0 0.00 0.47 0.47 47 1002.1
20260506200144 60 261 9.0 10.0 0.00 0.47 0.47 46 1002.1
20260506195641 60 257 9.0 11.0 0.00 0.47 0.47 46 1002.1
20260506195137 61 248 3.0 3.0 0.00 0.47 0.47 47 1002.1
20260506194635 60 264 6.0 6.0 0.00 0.47 0.47 48 1002.1
20260506194131 61 255 8.0 8.0 0.00 0.47 0.47 48 1002.1
20260506193629 60 236 5.0 6.0 0.00 0.47 0.47 48 1002.1
20260506193126 60 276 5.0 5.0 0.00 0.47 0.47 49 1001.8
20260506192623 59 270 4.0 4.0 0.00 0.47 0.47 50 1001.5
20260506192119 59 264 2.0 2.0 0.00 0.47 0.47 49 1001.8
20260506191616 59 258 6.0 6.0 0.00 0.47 0.47 49 1002.1
20260506191111 60 252 4.0 5.0 0.00 0.47 0.47 48 1002.1
20260506190609 59 254 3.0 3.0 0.00 0.47 0.47 49 1002.5
20260506190106 59 270 6.0 6.0 0.00 0.47 0.47 50 1002.5
20260506185603 59 265 4.0 5.0 0.00 0.47 0.47 50 1001.8
20260506185059 59 92 6.0 6.0 0.00 0.47 0.47 50 1002.1
20260506184557 59 92 6.0 6.0 0.00 0.47 0.47 50 1002.1
20260506184054 59 258 6.0 6.0 0.00 0.47 0.47 49 1002.5
20260506183550 59 270 7.0 7.0 0.00 0.47 0.47 49 1002.5
20260506183046 59 265 4.0 4.0 0.00 0.47 0.47 50 1002.5
20260506182544 59 264 6.0 6.0 0.00 0.47 0.47 48 1002.5
20260506182041 59 234 2.0 2.0 0.00 0.47 0.47 51 1002.5
20260506181539 59 244 4.0 5.0 0.00 0.47 0.47 46 1002.5
20260506181035 59 258 6.0 6.0 0.00 0.47 0.47 46 1002.5
20260506180532 59 264 7.0 7.0 0.00 0.47 0.47 48 1002.5
20260506180029 59 255 4.0 4.0 0.00 0.47 0.47 48 1002.5
20260506175525 58 264 4.0 5.0 0.00 0.47 0.47 46 1002.8
20260506175022 58 261 4.0 4.0 0.00 0.47 0.47 46 1002.5
20260506174521 58 254 6.0 6.0 0.00 0.47 0.47 47 1002.5
20260506174016 58 209 5.0 6.0 0.00 0.47 0.47 46 1002.5
20260506173514 58 258 9.0 11.0 0.00 0.47 0.47 44 1002.5
20260506173011 58 254 5.0 5.0 0.00 0.47 0.47 47 1002.8
20260506172508 57 260 2.0 2.0 0.00 0.47 0.47 49 1002.5
20260506172004 58 270 6.0 6.0 0.00 0.47 0.47 55 1002.5
20260506171501 57 258 7.0 7.0 0.00 0.47 0.47 51 1002.1
20260506170959 57 264 7.0 8.0 0.00 0.47 0.47 52 1002.1
20260506170455 57 270 8.0 8.0 0.00 0.47 0.47 51 1002.1
20260506165948 57 249 9.0 10.0 0.00 0.47 0.47 52 1002.1
20260506165446 57 246 6.0 7.0 0.00 0.47 0.47 55 1002.5
20260506164937 57 270 3.0 4.0 0.00 0.47 0.47 54 1002.5
20260506164433 56 252 7.0 7.0 0.00 0.47 0.47 57 1002.8
20260506163931 56 267 5.0 5.0 0.00 0.47 0.47 59 1002.8
20260506163426 55 248 7.0 7.0 0.00 0.47 0.47 60 1002.5
20260506162921 56 254 6.0 6.0 0.00 0.47 0.47 62 1002.5
20260506162418 56 264 3.0 3.0 0.00 0.47 0.47 60 1002.5
20260506161910 55 102 5.0 6.0 0.00 0.47 0.47 62 1002.1
20260506161408 55 255 9.0 11.0 0.00 0.47 0.47 60 1002.5
20260506160905 55 252 6.0 6.0 0.00 0.47 0.47 65 1002.5
20260506160401 54 254 4.0 4.0 0.00 0.47 0.47 67 1002.5
20260506155900 55 254 6.0 6.0 0.00 0.47 0.47 68 1002.5
20260506155357 54 255 3.0 3.0 0.00 0.47 0.47 69 1002.1
20260506153514 53 265 7.0 7.0 0.00 0.47 0.47 70 1002.1
20260506153011 53 258 5.0 5.0 0.00 0.47 0.47 70 1001.8
20260506152508 53 258 4.0 5.0 0.00 0.47 0.47 73 1001.8
20260506152006 53 265 3.0 3.0 0.00 0.47 0.47 73 1002.1
20260506151504 52 246 6.0 7.0 0.00 0.47 0.47 74 1001.8
20260506151001 51 246 4.0 4.0 0.00 0.47 0.47 76 1002.1
20260506150456 51 264 6.0 6.0 0.00 0.47 0.47 77 1001.8
20260506145954 51 258 6.0 6.0 0.00 0.47 0.47 76 1001.8
20260506145450 51 271 2.0 2.0 0.00 0.47 0.47 78 1001.8
20260506144948 51 265 7.0 7.0 0.00 0.47 0.47 81 1001.8
20260506144444 51 264 8.0 9.0 0.00 0.47 0.47 81 1001.8
20260506143943 51 258 6.0 6.0 0.00 0.47 0.47 83 1001.8
20260506143439 51 288 4.0 5.0 0.00 0.47 0.47 83 1001.5
20260506142938 50 240 5.0 6.0 0.00 0.47 0.47 82 1001.5
20260506142435 50 266 6.0 7.0 0.00 0.47 0.47 84 1001.1
20260506141933 50 258 6.0 7.0 0.00 0.47 0.47 85 1001.5
20260506141431 50 265 5.0 6.0 0.00 0.47 0.47 87 1001.1
20260506140929 50 265 4.0 4.0 0.00 0.47 0.47 87 1001.1
20260506140426 50 264 5.0 6.0 0.00 0.47 0.47 89 1000.8
20260506135922 51 264 4.0 5.0 0.00 0.47 0.47 88 1000.8
20260506135420 50 276 4.0 4.0 0.00 0.47 0.47 86 1000.8
20260506134916 50 260 4.0 5.0 0.00 0.47 0.47 88 1000.5
20260506134412 50 260 2.0 2.0 0.00 0.47 0.47 88 1000.5
20260506133909 50 312 3.0 3.0 0.00 0.47 0.47 89 1000.5
20260506133406 50 259 3.0 3.0 0.00 0.47 0.47 91 1000.5
20260506132903 50 270 5.0 5.0 0.00 0.47 0.47 90 1000.8
20260506132400 49 264 5.0 6.0 0.00 0.47 0.47 90 1000.5
20260506131858 49 258 5.0 6.0 0.00 0.47 0.47 91 1000.5
20260506131354 50 252 3.0 3.0 0.00 0.47 0.47 91 1000.8
20260506130851 49 108 0.0 0.0 0.00 0.47 0.47 92 1000.5
20260506130347 49 265 3.0 4.0 0.00 0.47 0.47 92 1000.5
20260506125845 49 259 2.0 2.0 0.00 0.47 0.47 92 1000.5
20260506125344 49 259 2.0 2.0 0.00 0.47 0.47 92 1000.5
20260506124842 49 264 3.0 4.0 0.00 0.47 0.47 92 1000.1
20260506124338 49 188 2.0 2.0 0.00 0.47 0.47 93 1000.1
20260506123836 49 264 1.0 1.0 0.00 0.47 0.47 94 999.8
20260506123334 49 264 2.0 2.0 0.00 0.47 0.47 95 999.8
20260506122831 48 270 5.0 6.0 0.00 0.47 0.47 95 999.8
20260506122327 48 264 1.0 1.0 0.00 0.47 0.47 96 999.8
20260506121826 48 266 2.0 2.0 0.00 0.47 0.47 96 999.8
20260506121323 48 266 0.0 0.0 0.00 0.47 0.47 97 999.8
20260506120820 47 266 2.0 2.0 0.00 0.47 0.47 97 999.8
20260506120318 47 266 0.0 0.0 0.00 0.47 0.47 97 999.8
20260506115815 47 264 0.0 0.0 0.01 0.47 0.47 97 999.8
20260506115313 47 264 0.0 0.0 0.01 0.47 0.47 97 999.8
20260506114811 47 264 0.0 0.0 0.01 0.47 0.47 97 999.8
20260506114308 47 267 4.0 4.0 0.01 0.47 0.47 97 999.3
20260506113807 47 101 0.0 0.0 0.01 0.47 0.47 97 999.3
20260506113304 47 234 0.0 0.0 0.01 0.47 0.47 97 999.0
20260506112800 47 180 0.0 0.0 0.01 0.47 0.47 97 999.0
20260506112258 47 174 2.0 2.0 0.01 0.47 0.47 97 999.0
20260506111755 47 102 3.0 3.0 0.01 0.47 0.47 97 999.0
20260506111253 48 264 0.0 0.0 0.01 0.47 0.47 97 998.0
20260506110750 48 270 5.0 6.0 0.00 0.45 0.45 97 998.0
20260506110247 48 108 2.0 2.0 0.00 0.45 0.45 96 998.0
20260506105744 48 258 0.0 0.0 0.00 0.45 0.45 96 998.7
20260506105240 48 270 3.0 4.0 0.00 0.45 0.45 96 998.3
20260506104738 48 192 0.0 0.0 0.00 0.45 0.45 95 998.3
20260506104236 48 183 0.0 0.0 0.00 0.45 0.45 95 998.3
20260506103733 48 183 0.0 0.0 0.00 0.45 0.45 95 998.7
20260506103230 48 183 0.0 0.0 0.00 0.45 0.45 95 998.3
20260506102728 48 183 0.0 0.0 0.00 0.45 0.45 95 998.0
20260506102225 48 186 0.0 0.0 0.00 0.45 0.45 95 998.0
20260506101722 48 186 1.0 1.0 0.00 0.45 0.45 95 998.0
20260506101219 48 186 1.0 1.0 0.00 0.45 0.45 95 997.3
20260506100717 48 252 0.0 0.0 0.00 0.45 0.45 94 997.3
20260506100215 48 101 2.0 2.0 0.00 0.45 0.45 95 997.0
20260506095713 48 142 0.0 0.0 0.01 0.45 0.45 95 997.3
20260506095209 48 240 4.0 4.0 0.01 0.45 0.45 96 997.3
20260506094706 48 252 0.0 0.0 0.01 0.45 0.45 96 997.3
20260506094204 48 258 3.0 3.0 0.01 0.45 0.45 96 997.6
20260506093703 48 264 5.0 6.0 0.01 0.45 0.45 96 997.6
20260506093159 48 258 0.0 0.0 0.00 0.44 0.44 96 997.3
20260506092657 48 264 3.0 3.0 0.00 0.44 0.44 96 997.3
20260506092154 48 252 4.0 4.0 0.00 0.44 0.44 96 997.6
20260506091652 48 258 5.0 5.0 0.00 0.44 0.44 96 997.3
20260506091149 48 265 3.0 3.0 0.00 0.44 0.44 96 997.6
20260506090647 48 252 3.0 3.0 0.00 0.44 0.44 96 997.0
20260506090144 48 252 7.0 7.0 0.00 0.44 0.44 96 996.6
20260506085640 48 252 8.0 8.0 0.09 0.42 0.42 97 997.3
20260506085136 49 258 4.0 4.0 0.07 0.40 0.40 97 997.3
20260506084633 49 264 5.0 6.0 0.07 0.40 0.40 97 997.3
20260506084130 49 258 2.0 2.0 0.06 0.39 0.39 97 997.3
20260506083627 49 264 5.0 6.0 0.06 0.39 0.39 96 997.6
20260506083125 49 254 2.0 2.0 0.06 0.39 0.39 96 997.3
20260506082621 49 264 4.0 4.0 0.04 0.37 0.37 96 997.0
20260506082117 49 264 2.0 2.0 0.03 0.36 0.36 97 997.0
20260506081615 49 271 2.0 2.0 0.01 0.34 0.34 97 997.3
20260506081113 49 240 5.0 5.0 0.01 0.34 0.34 97 997.3
20260506080610 49 270 5.0 5.0 0.00 0.33 0.33 97 997.0
20260506080107 49 252 3.0 3.0 0.06 0.33 0.33 97 997.0
20260506073050 50 252 3.0 3.0 0.04 0.31 0.31 97 996.3
20260506072547 50 258 0.0 0.0 0.04 0.31 0.31 97 996.3
20260506072045 51 264 4.0 4.0 0.03 0.29 0.29 97 996.6
20260506071543 51 258 3.0 4.0 0.03 0.29 0.29 97 996.3
20260506071040 51 267 0.0 0.0 0.01 0.28 0.28 98 996.3
20260506070537 51 258 6.0 6.0 0.00 0.26 0.26 98 996.3
20260506062514 53 260 5.0 6.0 0.07 0.17 0.17 98 996.3
20260506062011 53 270 3.0 3.0 0.06 0.15 0.15 98 996.3
20260506061506 53 264 2.0 2.0 0.04 0.14 0.14 98 996.3
20260506061005 53 267 2.0 2.0 0.03 0.12 0.12 98 996.3
20260506060503 53 276 3.0 3.0 0.00 0.09 0.09 98 996.3
20260506050932 58 258 0.0 0.0 0.00 0.00 0.00 98 997.0
20260506050430 58 258 0.0 0.0 0.00 0.00 0.00 98 996.6
20260506044920 58 258 0.0 0.0 0.00 0.00 0.00 98 997.0
20260506044418 58 258 0.0 0.0 0.00 0.00 0.00 98 997.0
20260506043915 58 258 0.0 0.0 0.00 0.00 0.00 98 997.3
20260506043412 58 258 0.0 0.0 0.00 0.00 0.00 98 997.0
20260506042910 59 258 0.0 0.0 0.00 0.00 0.00 98 997.0
20260506042409 59 258 0.0 0.0 0.00 0.00 0.00 98 997.0
20260506041907 59 258 0.0 0.0 0.00 0.00 0.00 98 997.0
20260506041404 59 258 0.0 0.0 0.00 0.00 0.00 98 997.0
20260506040901 59 258 0.0 0.0 0.00 0.00 0.00 98 997.0
20260506040358 59 258 0.0 0.0 0.00 0.00 0.00 98 997.3
20260506035854 59 258 0.0 0.0 0.11 0.45 0.45 98 997.6
20260506035352 59 258 0.0 0.0 0.11 0.45 0.45 98 997.6
20260506034849 59 258 0.0 0.0 0.11 0.45 0.45 98 997.6
20260506034346 59 258 0.0 0.0 0.11 0.45 0.45 98 998.0
20260506033843 59 264 0.0 0.0 0.09 0.44 0.44 98 998.0
20260506033340 59 264 0.0 0.0 0.09 0.44 0.44 98 998.0
20260506032837 59 264 0.0 0.0 0.07 0.42 0.42 98 998.0
20260506032333 59 264 0.0 0.0 0.06 0.40 0.40 98 998.0
20260506031831 59 264 0.0 0.0 0.04 0.39 0.39 98 998.3
20260506031328 60 258 0.0 0.0 0.03 0.37 0.37 98 998.3
20260506030826 60 258 0.0 0.0 0.03 0.37 0.37 97 998.0
20260506030323 60 258 0.0 0.0 0.01 0.36 0.36 97 998.0
20260506025820 60 258 0.0 0.0 0.11 0.34 0.34 97 998.3
20260506025316 60 258 0.0 0.0 0.11 0.34 0.34 97 998.0
20260506024814 60 258 0.0 0.0 0.11 0.34 0.34 97 998.0
20260506024310 60 258 0.0 0.0 0.09 0.33 0.33 97 998.3
20260506023806 60 258 0.0 0.0 0.09 0.33 0.33 97 998.3
20260506023304 60 258 0.0 0.0 0.07 0.31 0.31 97 998.0
20260506022800 60 258 0.0 0.0 0.07 0.31 0.31 97 998.0
20260506022258 60 258 0.0 0.0 0.06 0.29 0.29 97 998.3
20260506021755 60 258 1.0 1.0 0.04 0.28 0.28 97 998.3
20260506021252 60 228 0.0 0.0 0.01 0.25 0.25 97 998.0
20260506020749 60 222 0.0 0.0 0.01 0.25 0.25 97 998.0
20260506020247 60 222 0.0 0.0 0.00 0.23 0.23 97 998.0
20260506015744 60 222 0.0 0.0 0.07 0.22 0.22 97 998.0
20260506015242 60 222 0.0 0.0 0.07 0.22 0.22 97 998.0
20260506014738 60 222 0.0 0.0 0.06 0.20 0.20 97 998.3
20260506014235 60 222 0.0 0.0 0.04 0.18 0.18 97 998.0
20260506013732 60 222 0.0 0.0 0.03 0.17 0.17 97 998.0
20260506013229 60 222 0.0 0.0 0.01 0.15 0.15 97 998.0
20260506012725 60 222 0.0 0.0 0.01 0.15 0.15 97 998.0
20260506012223 60 222 0.0 0.0 0.01 0.15 0.15 97 997.6
20260506011720 60 222 0.0 0.0 0.00 0.14 0.14 96 997.6
20260506011216 60 222 0.0 0.0 0.00 0.14 0.14 96 997.6
20260506010715 60 222 0.0 0.0 0.00 0.14 0.14 96 997.6
20260506010212 60 222 0.0 0.0 0.00 0.14 0.14 96 997.6
20260506005709 60 222 0.0 0.0 0.01 0.14 0.14 96 998.0
20260506005205 60 222 0.0 0.0 0.01 0.14 0.14 96 997.6
20260506004701 60 222 0.0 0.0 0.01 0.14 0.14 96 998.0
20260506004159 60 222 0.0 0.0 0.00 0.12 0.12 96 998.0
20260506003654 60 222 0.0 0.0 0.00 0.12 0.12 96 997.6
20260506003151 60 222 0.0 0.0 0.00 0.12 0.12 96 998.0
20260506002647 60 222 0.0 0.0 0.00 0.12 0.12 96 997.6
20260506002143 60 222 0.0 0.0 0.00 0.12 0.12 96 998.0
20260506001639 60 222 0.0 0.0 0.00 0.12 0.12 96 998.0
20260506001137 60 297 0.0 0.0 0.00 0.12 0.12 96 998.0
20260506000634 60 297 0.0 0.0 0.00 0.12 0.12 96 998.0
20260506000131 60 297 0.0 0.0 0.00 0.12 0.12 96 998.0
20260505235629 60 297 0.0 0.0 0.00 0.12 0.12 96 998.0
20260505235126 60 297 0.0 0.0 0.00 0.12 0.12 96 998.0
20260505234623 61 297 0.0 0.0 0.00 0.12 0.12 96 997.6
20260505234120 61 297 0.0 0.0 0.00 0.12 0.12 96 998.0
20260505233617 61 297 0.0 0.0 0.00 0.12 0.12 96 998.0
20260505233115 61 297 0.0 0.0 0.00 0.12 0.12 96 998.3
20260505232612 61 297 0.0 0.0 0.00 0.12 0.12 96 998.0
20260505232109 61 297 0.0 0.0 0.00 0.12 0.12 95 998.3
20260505231606 61 297 0.0 0.0 0.00 0.12 0.12 95 998.0
20260505231105 61 297 0.0 0.0 0.00 0.12 0.12 95 998.0
20260505230602 61 297 0.0 0.0 0.00 0.12 0.12 95 998.3
20260505230058 61 297 2.0 2.0 0.00 0.12 0.12 95 998.0
20260505225555 61 297 0.0 0.0 0.11 0.11 0.11 95 998.3
20260505225051 61 261 4.0 4.0 0.11 0.11 0.11 95 998.7
20260505224548 61 253 3.0 3.0 0.11 0.11 0.11 95 998.3
20260505224046 61 270 2.0 2.0 0.11 0.11 0.11 94 998.7
20260505223542 61 281 2.0 2.0 0.11 0.11 0.11 94 998.7
20260505223038 62 148 2.0 2.0 0.07 0.07 0.07 93 998.3
20260505222535 63 258 7.0 7.0 0.01 0.01 0.01 90 998.3
20260505222031 64 258 7.0 8.0 0.00 0.00 0.00 85 998.0
20260505221529 65 270 8.0 9.0 0.00 0.00 0.00 79 998.0
20260505221025 70 288 7.0 8.0 0.00 0.00 0.00 65 997.6
20260505220522 70 252 2.0 2.0 0.00 0.00 0.00 64 997.6
20260505220020 70 174 2.0 2.0 0.00 0.00 0.00 62 997.6
20260505215518 71 288 4.0 4.0 0.00 0.00 0.00 60 997.6